ANZ292 YSCB-YBSU

Flight info

Callsign ANZ292
Flight time 1h 30m
Altitude 40000
Route CULIN W423 BTH W575 MUDGI H66 WHITI DCT GOMOL Q47 ITIDE
Aircraft B77W/H-SDE1E2E3FGHIJ2J3J4J5M1RWXY/LB1D1

Departure

Time 2026-04-28 06:35
Airport Canberra Airport (YSCB)

Arrival

Time 2026-04-28 08:05
Airport Sunshine Coast Airport (YBSU)
Time Latitude Longitude Altitude Speed Heading
2026-04-28 06:00 -35.30931 149.19125 1888 ft 0 kts 270°
2026-04-28 06:27 -35.30931 149.19127 1888 ft 1 kts 270°
2026-04-28 06:27 -35.30931 149.19147 1879 ft 3 kts 266°
2026-04-28 06:27 -35.30929 149.19172 1880 ft 3 kts 259°
2026-04-28 06:28 -35.30922 149.19203 1878 ft 3 kts 245°
2026-04-28 06:28 -35.30916 149.19216 1878 ft 3 kts 234°
2026-04-28 06:28 -35.30905 149.19232 1878 ft 3 kts 212°
2026-04-28 06:28 -35.30893 149.19239 1879 ft 2 kts 184°
2026-04-28 06:29 -35.30889 149.19240 1879 ft 0 kts 180°
2026-04-28 06:31 -35.30899 149.19240 1879 ft 9 kts 180°
2026-04-28 06:31 -35.31037 149.19240 1882 ft 27 kts 180°
2026-04-28 06:31 -35.31237 149.19238 1882 ft 29 kts 179°
2026-04-28 06:31 -35.31443 149.19240 1880 ft 29 kts 179°
2026-04-28 06:32 -35.31641 149.19238 1880 ft 25 kts 180°
2026-04-28 06:32 -35.31772 149.19239 1880 ft 12 kts 180°
2026-04-28 06:32 -35.31853 149.19238 1883 ft 12 kts 180°
2026-04-28 06:32 -35.31934 149.19248 1880 ft 12 kts 164°
2026-04-28 06:33 -35.31987 149.19295 1879 ft 0 kts 123°
2026-04-28 06:33 -35.32006 149.19374 1885 ft 16 kts 95°
2026-04-28 06:34 -35.31960 149.19441 1877 ft 0 kts
2026-04-28 06:34 -35.31909 149.19445 1883 ft 33 kts
2026-04-28 06:34 -35.31365 149.19445 1879 ft 120 kts 359°
2026-04-28 06:34 -35.30290 149.19453 2001 ft 175 kts
2026-04-28 06:35 -35.29085 149.19496 2925 ft 170 kts 359°
2026-04-28 06:35 -35.27872 149.19543 3637 ft 185 kts
2026-04-28 06:35 -35.26503 149.19703 4059 ft 212 kts
2026-04-28 06:35 -35.24893 149.19894 4318 ft 249 kts
2026-04-28 06:36 -35.23096 149.20112 4953 ft 268 kts
2026-04-28 06:36 -35.21204 149.20347 5946 ft 275 kts
2026-04-28 06:36 -35.19277 149.20582 6949 ft 280 kts
2026-04-28 06:36 -35.17347 149.20816 7948 ft 282 kts
2026-04-28 06:37 -35.15377 149.21055 8968 ft 285 kts
2026-04-28 06:37 -35.13402 149.21293 9963 ft 288 kts
2026-04-28 06:37 -35.11368 149.21572 10703 ft 300 kts
2026-04-28 06:37 -35.09277 149.22293 10958 ft 332 kts 18°
2026-04-28 06:38 -35.07023 149.23358 11192 ft 363 kts 21°
2026-04-28 06:38 -35.04607 149.24572 11809 ft 381 kts 21°
2026-04-28 06:38 -35.02142 149.25802 12798 ft 389 kts 21°
2026-04-28 06:38 -34.99596 149.27046 13930 ft 396 kts 21°
2026-04-28 06:39 -34.97016 149.28281 14939 ft 403 kts 21°
2026-04-28 06:39 -34.94368 149.29530 15923 ft 411 kts 21°
2026-04-28 06:39 -34.91671 149.30790 16885 ft 419 kts 21°
2026-04-28 06:39 -34.88912 149.32074 17840 ft 427 kts 21°
2026-04-28 06:40 -34.86102 149.33381 18759 ft 435 kts 22°
2026-04-28 06:40 -34.83251 149.34706 19590 ft 441 kts 22°
2026-04-28 06:40 -34.80386 149.36037 20435 ft 447 kts 22°
2026-04-28 06:40 -34.77442 149.37403 21272 ft 453 kts 22°
2026-04-28 06:41 -34.74502 149.38762 22061 ft 460 kts 21°
2026-04-28 06:41 -34.71386 149.39853 22777 ft 468 kts 13°
2026-04-28 06:41 -34.68171 149.40559 23477 ft 476 kts 10°
2026-04-28 06:41 -34.64844 149.41155 24173 ft 483 kts
2026-04-28 06:42 -34.61487 149.41728 24837 ft 487 kts
2026-04-28 06:42 -34.58138 149.42318 25501 ft 492 kts 10°
2026-04-28 06:42 -34.54729 149.42952 26148 ft 496 kts 10°
2026-04-28 06:42 -34.51343 149.43612 26753 ft 501 kts 11°
2026-04-28 06:43 -34.47880 149.44307 27342 ft 506 kts 11°
2026-04-28 06:43 -34.44363 149.45024 27923 ft 511 kts 11°
2026-04-28 06:43 -34.40861 149.45741 28489 ft 516 kts 11°
2026-04-28 06:43 -34.37292 149.46471 29029 ft 520 kts 11°
2026-04-28 06:44 -34.33691 149.47205 29531 ft 525 kts 11°
2026-04-28 06:44 -34.30103 149.47933 29982 ft 529 kts 11°
2026-04-28 06:44 -34.26453 149.48673 30425 ft 533 kts 11°
2026-04-28 06:44 -34.22817 149.49408 30849 ft 534 kts 11°
2026-04-28 06:45 -34.19121 149.50153 31385 ft 533 kts 11°
2026-04-28 06:45 -34.15498 149.50883 31942 ft 532 kts 11°
2026-04-28 06:45 -34.11850 149.51618 32460 ft 531 kts 11°
2026-04-28 06:45 -34.08193 149.52354 32945 ft 531 kts 12°
2026-04-28 06:46 -34.04526 149.53092 33445 ft 531 kts 11°
2026-04-28 06:46 -34.00930 149.53815 33926 ft 530 kts 12°
2026-04-28 06:46 -33.97271 149.54550 34410 ft 530 kts 12°
2026-04-28 06:46 -33.93608 149.55286 34854 ft 529 kts 12°
2026-04-28 06:47 -33.90012 149.56007 35314 ft 527 kts 11°
2026-04-28 06:47 -33.86393 149.56732 35783 ft 525 kts 11°
2026-04-28 06:47 -33.82785 149.57454 36231 ft 524 kts 11°
2026-04-28 06:47 -33.79219 149.58168 36668 ft 523 kts 11°
2026-04-28 06:48 -33.75626 149.58886 37104 ft 521 kts 11°
2026-04-28 06:48 -33.72045 149.59602 37525 ft 520 kts 11°
2026-04-28 06:48 -33.68496 149.60310 37942 ft 519 kts 11°
2026-04-28 06:48 -33.64930 149.61021 38353 ft 518 kts 11°
2026-04-28 06:49 -33.61376 149.61729 38762 ft 516 kts 11°
2026-04-28 06:49 -33.57868 149.62428 39098 ft 515 kts 10°
2026-04-28 06:49 -33.54307 149.63136 39237 ft 519 kts 10°
2026-04-28 06:50 -33.47188 149.64552 39296 ft 520 kts 10°
2026-04-28 06:50 -33.40019 149.65540 39292 ft 514 kts
2026-04-28 06:51 -33.32924 149.65184 39295 ft 513 kts 355°
2026-04-28 06:51 -33.25793 149.64572 39296 ft 513 kts 356°
2026-04-28 06:52 -33.18649 149.64003 39300 ft 513 kts 356°
2026-04-28 06:52 -33.11550 149.63474 39293 ft 514 kts 356°
2026-04-28 06:53 -33.04389 149.62949 39294 ft 515 kts 356°
2026-04-28 06:53 -32.97263 149.62425 39287 ft 515 kts 356°
2026-04-28 06:54 -32.90076 149.61895 39284 ft 515 kts 356°
2026-04-28 06:54 -32.82941 149.61370 39283 ft 515 kts 356°
2026-04-28 06:55 -32.75792 149.60844 39281 ft 515 kts 356°
2026-04-28 06:55 -32.68623 149.60318 39274 ft 514 kts 356°
2026-04-28 06:56 -32.61497 149.59819 39268 ft 513 kts 359°
2026-04-28 06:56 -32.57974 149.60164 39256 ft 511 kts 12°
2026-04-28 06:56 -32.54545 149.61328 39284 ft 509 kts 23°
2026-04-28 06:56 -32.51387 149.63133 39268 ft 506 kts 35°
2026-04-28 06:57 -32.48503 149.65511 39294 ft 503 kts 38°
2026-04-28 06:57 -32.42840 149.70437 39283 ft 505 kts 39°
2026-04-28 06:58 -32.37179 149.75303 39270 ft 507 kts 38°
2026-04-28 06:58 -32.31407 149.80165 39283 ft 508 kts 38°
2026-04-28 06:59 -32.25647 149.84976 39269 ft 509 kts 37°
2026-04-28 06:59 -32.19839 149.89822 39269 ft 509 kts 37°
2026-04-28 07:00 -32.14048 149.94653 39272 ft 509 kts 37°
2026-04-28 07:00 -32.08298 149.99443 39278 ft 509 kts 37°
2026-04-28 07:01 -32.02505 150.04262 39277 ft 509 kts 37°
2026-04-28 07:01 -31.96738 150.09051 39261 ft 509 kts 37°
2026-04-28 07:02 -31.90939 150.13859 39269 ft 508 kts 37°
2026-04-28 07:02 -31.85176 150.18631 39259 ft 508 kts 37°
2026-04-28 07:03 -31.79371 150.23431 39262 ft 509 kts 37°
2026-04-28 07:03 -31.73602 150.28185 39265 ft 509 kts 37°
2026-04-28 07:04 -31.67783 150.32972 39257 ft 509 kts 37°
2026-04-28 07:04 -31.61996 150.37727 39259 ft 510 kts 37°
2026-04-28 07:05 -31.56193 150.42492 39250 ft 510 kts 37°
2026-04-28 07:05 -31.50355 150.47287 39247 ft 510 kts 38°
2026-04-28 07:06 -31.44543 150.52055 39248 ft 511 kts 38°
2026-04-28 07:06 -31.38736 150.56810 39240 ft 511 kts 38°
2026-04-28 07:07 -31.32927 150.61560 39242 ft 511 kts 38°
2026-04-28 07:07 -31.27102 150.66316 39238 ft 512 kts 38°
2026-04-28 07:08 -31.21240 150.71094 39244 ft 512 kts 38°
2026-04-28 07:08 -31.15413 150.75838 39242 ft 513 kts 38°
2026-04-28 07:09 -31.09539 150.80612 39240 ft 513 kts 38°
2026-04-28 07:09 -31.03891 150.85669 39240 ft 510 kts 45°
2026-04-28 07:10 -30.98652 150.91169 39243 ft 509 kts 46°
2026-04-28 07:10 -30.93394 150.96725 39251 ft 509 kts 45°
2026-04-28 07:11 -30.88114 151.02241 39246 ft 510 kts 45°
2026-04-28 07:11 -30.82837 151.07715 39258 ft 510 kts 45°
2026-04-28 07:12 -30.77521 151.13214 39260 ft 510 kts 45°
2026-04-28 07:12 -30.72205 151.18708 39267 ft 511 kts 45°
2026-04-28 07:13 -30.66901 151.24186 39268 ft 511 kts 45°
2026-04-28 07:13 -30.61611 151.29640 39269 ft 511 kts 45°
2026-04-28 07:14 -30.56268 151.35141 39268 ft 511 kts 45°
2026-04-28 07:14 -30.50981 151.40575 39281 ft 511 kts 45°
2026-04-28 07:15 -30.45659 151.46037 39284 ft 510 kts 45°
2026-04-28 07:15 -30.40316 151.51514 39282 ft 510 kts 45°
2026-04-28 07:16 -30.35017 151.56939 39295 ft 510 kts 44°
2026-04-28 07:16 -30.30584 151.61468 39280 ft 510 kts 44°
2026-04-28 07:17 -30.25270 151.66891 39287 ft 509 kts 44°
2026-04-28 07:17 -30.19966 151.72300 39289 ft 509 kts 44°
2026-04-28 07:18 -30.14660 151.77703 39290 ft 508 kts 44°
2026-04-28 07:18 -30.09361 151.83091 39292 ft 508 kts 44°
2026-04-28 07:19 -30.04061 151.88473 39293 ft 507 kts 44°
2026-04-28 07:19 -29.98749 151.93859 39289 ft 506 kts 43°
2026-04-28 07:20 -29.93467 151.99207 39287 ft 505 kts 43°
2026-04-28 07:20 -29.88203 152.04528 39292 ft 504 kts 43°
2026-04-28 07:21 -29.82914 152.09869 39290 ft 503 kts 43°
2026-04-28 07:21 -29.77654 152.15165 39292 ft 503 kts 43°
2026-04-28 07:22 -29.69760 152.23079 39291 ft 503 kts 42°
2026-04-28 07:22 -29.64472 152.28374 39284 ft 503 kts 42°
2026-04-28 07:23 -29.59198 152.33649 39285 ft 502 kts 42°
2026-04-28 07:23 -29.53947 152.38895 39279 ft 501 kts 42°
2026-04-28 07:24 -29.48695 152.44134 39277 ft 500 kts 41°
2026-04-28 07:24 -29.43458 152.49351 39280 ft 500 kts 41°
2026-04-28 07:25 -29.38191 152.54589 39273 ft 499 kts 41°
2026-04-28 07:25 -29.32967 152.59779 39277 ft 498 kts 41°
2026-04-28 07:26 -29.27727 152.64977 39275 ft 498 kts 41°
2026-04-28 07:26 -29.22483 152.70173 39275 ft 498 kts 41°
2026-04-28 07:27 -29.17207 152.75332 39272 ft 497 kts 38°
2026-04-28 07:27 -29.11546 152.79806 39277 ft 496 kts 33°
2026-04-28 07:28 -29.05728 152.84116 39271 ft 496 kts 32°
2026-04-28 07:28 -28.99967 152.88406 39268 ft 496 kts 33°
2026-04-28 07:29 -28.94184 152.92749 39273 ft 496 kts 33°
2026-04-28 07:29 -28.88448 152.97067 39265 ft 496 kts 33°
2026-04-28 07:30 -28.82679 153.01403 39268 ft 496 kts 32°
2026-04-28 07:30 -28.76910 153.05730 39264 ft 495 kts 32°
2026-04-28 07:31 -28.71175 153.10025 39264 ft 495 kts 32°
2026-04-28 07:31 -28.65404 153.14341 39267 ft 495 kts 32°
2026-04-28 07:32 -28.59664 153.18628 39256 ft 494 kts 32°
2026-04-28 07:32 -28.53893 153.22934 39262 ft 494 kts 32°
2026-04-28 07:33 -28.48175 153.27194 39261 ft 493 kts 32°
2026-04-28 07:33 -28.42417 153.31478 39256 ft 493 kts 32°
2026-04-28 07:34 -28.36712 153.35718 39252 ft 493 kts 32°
2026-04-28 07:34 -28.30985 153.39968 39242 ft 492 kts 32°
2026-04-28 07:35 -28.25224 153.44238 39239 ft 492 kts 31°
2026-04-28 07:35 -28.19505 153.48472 39241 ft 492 kts 31°
2026-04-28 07:36 -28.14018 153.53092 39240 ft 494 kts 39°
2026-04-28 07:36 -28.08847 153.58260 39240 ft 494 kts 40°
2026-04-28 07:37 -28.03705 153.63397 39239 ft 494 kts 39°
2026-04-28 07:37 -27.98549 153.68475 39238 ft 494 kts 39°
2026-04-28 07:38 -27.93342 153.73583 39234 ft 494 kts 39°
2026-04-28 07:38 -27.87905 153.78182 39229 ft 487 kts 22°
2026-04-28 07:39 -27.84731 153.79519 39035 ft 487 kts 13°
2026-04-28 07:39 -27.81397 153.80129 38167 ft 490 kts 358°
2026-04-28 07:39 -27.78031 153.80077 37437 ft 476 kts 356°
2026-04-28 07:39 -27.74714 153.79962 36654 ft 476 kts 356°
2026-04-28 07:40 -27.71390 153.79853 35853 ft 476 kts 356°
2026-04-28 07:40 -27.68092 153.79765 34967 ft 479 kts 357°
2026-04-28 07:40 -27.64730 153.79698 34003 ft 483 kts 357°
2026-04-28 07:40 -27.61384 153.79647 32909 ft 486 kts 357°
2026-04-28 07:41 -27.57981 153.79603 31842 ft 489 kts 357°
2026-04-28 07:41 -27.54567 153.79562 30876 ft 490 kts 357°
2026-04-28 07:41 -27.51174 153.79522 30146 ft 484 kts 357°
2026-04-28 07:41 -27.47810 153.79480 29305 ft 479 kts 357°
2026-04-28 07:42 -27.44529 153.79437 28579 ft 473 kts 357°
2026-04-28 07:42 -27.41243 153.79395 27890 ft 467 kts 357°
2026-04-28 07:42 -27.38040 153.79352 27202 ft 461 kts 358°
2026-04-28 07:42 -27.34844 153.79309 26542 ft 456 kts 357°
2026-04-28 07:43 -27.31678 153.79265 25889 ft 451 kts 357°
2026-04-28 07:43 -27.28599 153.78976 25251 ft 445 kts 349°
2026-04-28 07:43 -27.25596 153.78186 24626 ft 440 kts 342°
2026-04-28 07:43 -27.22719 153.77020 23989 ft 436 kts 335°
2026-04-28 07:44 -27.20011 153.75510 23277 ft 433 kts 332°
2026-04-28 07:44 -27.17382 153.73981 22610 ft 429 kts 332°
2026-04-28 07:44 -27.14735 153.72438 21962 ft 425 kts 332°
2026-04-28 07:44 -27.12117 153.70920 21340 ft 421 kts 333°
2026-04-28 07:45 -27.09539 153.69437 20746 ft 417 kts 333°
2026-04-28 07:45 -27.06952 153.67957 20131 ft 414 kts 333°
2026-04-28 07:45 -27.04388 153.66497 19535 ft 411 kts 333°
2026-04-28 07:45 -27.01837 153.65048 18928 ft 409 kts 334°
2026-04-28 07:46 -26.99333 153.63627 18317 ft 407 kts 334°
2026-04-28 07:46 -26.96798 153.62188 17664 ft 405 kts 334°
2026-04-28 07:46 -26.94288 153.60765 17037 ft 402 kts 334°
2026-04-28 07:46 -26.91794 153.59351 16442 ft 399 kts 334°
2026-04-28 07:47 -26.89355 153.57969 15867 ft 396 kts 334°
2026-04-28 07:47 -26.86899 153.56578 15292 ft 394 kts 334°
2026-04-28 07:47 -26.84460 153.55198 14710 ft 391 kts 334°
2026-04-28 07:47 -26.82026 153.53820 14145 ft 389 kts 334°
2026-04-28 07:48 -26.79607 153.52451 13516 ft 388 kts 334°
2026-04-28 07:48 -26.77224 153.51105 12909 ft 386 kts 335°
2026-04-28 07:48 -26.74834 153.49755 12331 ft 383 kts 334°
2026-04-28 07:48 -26.72467 153.48366 11762 ft 381 kts 331°
2026-04-28 07:49 -26.70231 153.46846 11222 ft 380 kts 328°
2026-04-28 07:49 -26.68041 153.45263 11042 ft 360 kts 327°
2026-04-28 07:49 -26.66044 153.43806 10836 ft 325 kts 328°
2026-04-28 07:49 -26.64241 153.42501 10598 ft 299 kts 328°
2026-04-28 07:50 -26.62514 153.41263 10473 ft 289 kts 328°
2026-04-28 07:50 -26.60834 153.40067 10333 ft 282 kts 328°
2026-04-28 07:50 -26.59212 153.38918 10200 ft 275 kts 328°
2026-04-28 07:50 -26.57594 153.37774 10091 ft 278 kts 329°
2026-04-28 07:51 -26.55894 153.36577 9828 ft 297 kts 329°
2026-04-28 07:51 -26.54134 153.35336 9518 ft 305 kts 329°
2026-04-28 07:51 -26.52326 153.34061 9178 ft 305 kts 329°
2026-04-28 07:51 -26.50552 153.32810 8853 ft 304 kts 329°
2026-04-28 07:52 -26.48769 153.31556 8523 ft 302 kts 329°
2026-04-28 07:52 -26.46986 153.30302 8193 ft 301 kts 329°
2026-04-28 07:52 -26.45297 153.28977 7906 ft 296 kts 319°
2026-04-28 07:52 -26.43840 153.27356 7596 ft 295 kts 313°
2026-04-28 07:53 -26.42470 153.25675 7359 ft 291 kts 313°
2026-04-28 07:53 -26.41110 153.24020 7145 ft 286 kts 313°
2026-04-28 07:53 -26.39765 153.22426 6930 ft 281 kts 314°
2026-04-28 07:53 -26.38416 153.20852 6734 ft 275 kts 314°
2026-04-28 07:54 -26.37117 153.19343 6506 ft 270 kts 314°
2026-04-28 07:54 -26.35868 153.17813 6237 ft 262 kts 304°
2026-04-28 07:54 -26.35230 153.15989 6042 ft 242 kts 277°
2026-04-28 07:54 -26.35017 153.14229 5849 ft 221 kts 275°
2026-04-28 07:55 -26.34824 153.12592 5636 ft 203 kts 275°
2026-04-28 07:55 -26.34646 153.11116 5473 ft 187 kts 274°
2026-04-28 07:55 -26.34475 153.09698 5344 ft 182 kts 274°
2026-04-28 07:55 -26.34305 153.08292 5225 ft 184 kts 274°
2026-04-28 07:56 -26.34133 153.06881 5091 ft 187 kts 275°
2026-04-28 07:56 -26.34047 153.05433 4910 ft 184 kts 253°
2026-04-28 07:56 -26.34642 153.04284 4776 ft 165 kts 223°
2026-04-28 07:56 -26.35338 153.03256 4653 ft 170 kts 228°
2026-04-28 07:57 -26.36034 153.02169 4511 ft 172 kts 227°
2026-04-28 07:57 -26.36726 153.01095 4359 ft 167 kts 227°
2026-04-28 07:57 -26.37392 153.00064 4230 ft 163 kts 222°
2026-04-28 07:57 -26.38299 152.99458 4108 ft 149 kts 191°
2026-04-28 07:58 -26.39295 152.99013 3988 ft 157 kts 197°
2026-04-28 07:58 -26.40273 152.98521 3879 ft 155 kts 198°
2026-04-28 07:58 -26.41255 152.98026 3730 ft 151 kts 197°
2026-04-28 07:58 -26.42178 152.97559 3599 ft 140 kts 196°
2026-04-28 07:59 -26.43053 152.97121 3501 ft 139 kts 195°
2026-04-28 07:59 -26.43961 152.96667 3406 ft 143 kts 196°
2026-04-28 07:59 -26.44876 152.96286 3233 ft 137 kts 179°
2026-04-28 07:59 -26.45633 152.96672 3117 ft 122 kts 132°
2026-04-28 08:00 -26.46300 152.97300 2930 ft 127 kts 145°
2026-04-28 08:00 -26.47023 152.97852 2778 ft 126 kts 142°
2026-04-28 08:00 -26.47719 152.98423 2593 ft 122 kts 142°
2026-04-28 08:00 -26.48175 152.98800 2491 ft 124 kts 142°
2026-04-28 08:01 -26.49107 152.99584 2285 ft 127 kts 142°
2026-04-28 08:01 -26.49809 153.00178 2121 ft 126 kts 143°
2026-04-28 08:01 -26.50273 153.00572 1980 ft 125 kts 143°
2026-04-28 08:01 -26.50968 153.01163 1841 ft 128 kts 143°
2026-04-28 08:02 -26.51894 153.01948 1743 ft 127 kts 143°
2026-04-28 08:02 -26.52611 153.02555 1464 ft 129 kts 143°
2026-04-28 08:02 -26.53073 153.02954 1306 ft 124 kts 143°
2026-04-28 08:02 -26.53756 153.03566 1018 ft 127 kts 144°
2026-04-28 08:03 -26.54456 153.04166 807 ft 131 kts 146°
2026-04-28 08:03 -26.55164 153.04762 643 ft 124 kts 146°
2026-04-28 08:03 -26.55871 153.05379 594 ft 131 kts 146°
2026-04-28 08:03 -26.56588 153.05992 789 ft 133 kts 148°
2026-04-28 08:04 -26.57302 153.06593 400 ft 123 kts 143°
2026-04-28 08:04 -26.57960 153.07162 97 ft 121 kts 147°
2026-04-28 08:04 -26.58609 153.07695 28 ft 105 kts 140°
2026-04-28 08:04 -26.59040 153.08073 28 ft 54 kts 142°
2026-04-28 08:05 -26.59218 153.08225 27 ft 24 kts 142°
2026-04-28 08:05 -26.59350 153.08261 27 ft 19 kts 221°
2026-04-28 08:05 -26.59456 153.08203 29 ft 19 kts 159°
2026-04-28 08:05 -26.59563 153.08285 29 ft 19 kts 141°
2026-04-28 08:06 -26.59665 153.08373 29 ft 19 kts 143°
2026-04-28 08:06 -26.59768 153.08461 29 ft 19 kts 142°
2026-04-28 08:06 -26.59890 153.08566 29 ft 27 kts 142°
2026-04-28 08:06 -26.60050 153.08703 28 ft 32 kts 141°
2026-04-28 08:07 -26.60234 153.08862 29 ft 29 kts 144°
2026-04-28 08:07 -26.60358 153.08965 29 ft 19 kts 142°
2026-04-28 08:07 -26.60470 153.09052 29 ft 10 kts 163°
2026-04-28 08:07 -26.60506 153.09005 29 ft 15 kts 250°
2026-04-28 08:08 -26.60519 153.08963 29 ft 0 kts 252°
2026-04-28 08:08 -26.60524 153.08943 29 ft 1 kts 252°
2026-04-28 08:09 -26.60525 153.08941 29 ft 0 kts 252°